Lexington Weather

Lexington, Massachusetts, USA

34°F
4/16/2021 10:39am 
  • Lexington Conditions: Snow, Fog, Overcast
  • Temperature: 34.0°F / 1.1°C 
  • Dew Point: 32.7°F 
  • Relative Humidity: 95
  • Wind: Calm, 10-min avg: Calm, gust: None
  • Barometer: 29.48 in Steady
  • Visibility: ½ mile
  • Snow Today: 1.3 in
  •   

Regional Weather Roundup
for Boston / Norton, MA

        
000
ASUS41 KBOX 160204
RWRBOX

REGIONAL WEATHER ROUNDUP
NATIONAL WEATHER SERVICE BOSTON/NORTON MA
1000 PM EDT THU APR 15 2021

NOTE:  "FAIR" INDICATES FEW OR NO CLOUDS BELOW 12,000 FEET WITH NO 
SIGNIFICANT WEATHER AND/OR OBSTRUCTIONS TO VISIBILITY.

MAZALL-160300-
EASTERN MASSACHUSETTS
  
CITY           SKY/WX    TMP DP  RH WIND       PRES   REMARKS
BOSTON         LGT RAIN  44  38  79 E16       29.77F                  
BEVERLY        NOT AVBL                                               
LAWRENCE       LGT RAIN  43  38  82 E9        29.79F                  
BEDFORD        LGT RAIN  41  39  93 NE7       29.74F                  
BLUE HILL        N/A     38  37  97 E16       29.71F WCI  29          
NORWOOD        LGT RAIN  43  38  82 NE8       29.73F                  
MARSHFIELD     LGT RAIN  45  39  81 E8G18     29.75F                  
PLYMOUTH       LGT RAIN  41  38  89 E10       29.72F                  
TAUNTON        LGT RAIN  41  38  89 E7        29.71F                  
NEW BEDFORD    LGT RAIN  42  38  85 NE12      29.70F                  
$$

MAZALL-160300-
CAPE COD AND THE ISLANDS
  
CITY           SKY/WX    TMP DP  RH WIND       PRES   REMARKS
FALMOUTH       MOCLDY    41  39  93 E14       29.71F                  
HYANNIS        CLOUDY    44  39  82 E9        29.70F                  
CHATHAM        CLOUDY    44  37  76 E10       29.74F                  
PROVINCETOWN   CLOUDY    44  38  79 E9        29.76F                  
NANTUCKET      LGT RAIN  44  40  85 E17G24    29.68F                  
MARTHAS VNYRD  LGT RAIN  44  39  82 E16       29.67F                  
$$
 
MAZALL-160300-
CENTRAL AND WESTERN MASSACHUSETTS
  
CITY           SKY/WX    TMP DP  RH WIND       PRES   REMARKS
WORCESTER      LGT RAIN  37  34  89 NE10G22   29.69F WCI  30          
FITCHBURG      LGT RAIN  38  36  92 N5        29.75F                  
ORANGE         LGT RAIN  38  34  85 NW6       29.75F                  
SPRINGFIELD    NOT AVBL                                               
WESTFIELD      RAIN      40  39  97 NW9       29.74F                  
NORTH ADAMS    LGT RAIN  37  37 100 CALM      29.75F                  
PITTSFIELD     LGT SNOW  33  32  96 CALM      29.71F VSB 1            
$$
 
RIZALL-160300-
RHODE ISLAND
  
CITY           SKY/WX    TMP DP  RH WIND       PRES   REMARKS
PROVIDENCE     RAIN      42  38  85 NE12      29.71F                  
NEWPORT        RAIN      41  38  89 NE9       29.68F FOG              
BLOCK ISLAND   LGT RAIN  41  39  93 NE15G26   29.66F FOG              
SMITHFIELD     LGT RAIN  39  39 100 E10G17    29.70F                  
WESTERLY       RAIN      40  38  93 NE10G23   29.65F                  
$$
 
CTZALL-160300-
CONNECTICUT
  
CITY           SKY/WX    TMP DP  RH WIND       PRES   REMARKS
BRADLEY INTL   RAIN      40  37  89 NW5       29.75R FOG              
HARTFORD       RAIN      42  36  79 NE13      29.74R                  
BRIDGEPORT     LGT RAIN  45  43  93 NE3       29.70F                  
DANBURY        LGT RAIN  45  39  79 N10       29.72S                  
GROTON         RAIN      42  39  89 NW12      29.69R FOG              
NEW HAVEN      LGT RAIN  43  40  89 NE9       29.70F FOG              
CHESTER        LGT RAIN  39  39 100 N5        29.71S                  
MERIDEN        RAIN      40  37  89 NE9       29.73F                  
WILLIMANTIC    RAIN      40  37  89 NW6       29.73R FOG              
OXFORD         RAIN      39  39 100 N6        29.72R FOG              
$$

MEZ002-015-021-024-NHZ003-005-008-011-012-014-VTZ005-008-160300-
NORTHERN NEW ENGLAND
  
CITY           SKY/WX    TMP DP  RH WIND       PRES   REMARKS
PORTLAND ME    CLOUDY    43  37  79 E10       29.83F                  
BANGOR ME      CLOUDY    39  26  59 CALM      29.85F                  
CONCORD NH     LGT RAIN  40  34  79 E5        29.79F                  
MANCHESTER NH  LGT RAIN  43  37  79 NE6       29.76F                  
NASHUA NH      RAIN      41  41 100 NE5       29.78F                  
PORTSMOUTH NH  CLOUDY    44  35  72 E8        29.80F                  
JAFFREY NH     LGT SNOW  34  33  96 VRB3      29.74F VSB 1            
KEENE NH       LGT RAIN  37  35  92 N9        29.76F WCI  30          
BURLINGTON VT  LGT RAIN  42  36  79 S8        29.74S                  
MT. WASHINGTON LGT SNOW  21  16  79 E38         N/A  DRFTSNOWWCI   1  
$$

NYZ052-076-160300-
EASTERN NEW YORK
  
CITY           SKY/WX    TMP DP  RH WIND       PRES   REMARKS
ALBANY         LGT RAIN  36  36 100 NE3       29.75F                  
NEW YORK CITY  CLOUDY    49  42  77 N12       29.70S                  
$$
 
ANZALL-160300-
MARINE OBSERVATIONS
  
STATION/POSITION TIME  TEMP    WIND        PRES    VSBY  WAVE
                       AIR SEA DIR/SP/G                  HT/PER
                 (UTC) (F)     (DEG/KT/KT) (MB)    (MI)  (FT/S)
BOSTON BUOY      0140   44 45   90/ 12/ 16 1008.5F
BUZZARDS BAY     0100           60/ 20/ 22 1006.7F
NANTUCKET SOUND  0140      47                N/A
MASS BAY-STELLWA 0104   45     100/ 10/ 12 1008.2R  1 7/8  6/11
ISLE OF SHOALS   0100   44     100/ 13/ 15 1009.1R
S OF BLOCK IS    0126      44                N/A           6/12
$$

......................KEY.........................
  SKY/WX - SKY CONDITION/PRESENT WEATHER
  TMP    - TEMPERATURE IN FAHRENHEIT
  DWPT   - DEWPOINT IN FAHRENHEIT
  RH     - RELATIVE HUMIDITY IN PERCENT
  WIND   - DIRECTION AND SPEED IN MPH
  PRES   - MEAN SEA LEVEL PRESSURE IN INCHES OF HG
  WCI    - WIND CHILL INDEX
  VSB    - VISIBILITY IN MILES
  HX     - HEAT INDEX
  TC     - TEMPERATURE IN CELSIUS
  VRB    - VARIABLE WIND DIRECTION
  N/A    - NOT AVAILABLE
  
      

Other recent Regional Weather Roundups

Fri Apr 16, 10:05am

Fri Apr 16, 9:04am

Fri Apr 16, 8:04am

Fri Apr 16, 7:04am

Fri Apr 16, 6:04am

Fri Apr 16, 5:04am

Fri Apr 16, 4:04am

Fri Apr 16, 3:04am

Fri Apr 16, 2:04am

Fri Apr 16, 1:04am

Fri Apr 16, 12:04am

Thu Apr 15, 11:05pm

Thu Apr 15, 9:04pm

Thu Apr 15, 8:04pm

Thu Apr 15, 7:05pm

Thu Apr 15, 6:04pm

Thu Apr 15, 5:05pm

Thu Apr 15, 4:04pm

Thu Apr 15, 3:05pm

Thu Apr 15, 2:04pm

Thu Apr 15, 1:05pm

Thu Apr 15, 12:04pm

Thu Apr 15, 11:04am

Thu Apr 15, 10:05am

Thu Apr 15, 9:04am

Thu Apr 15, 8:04am

Thu Apr 15, 7:04am

Thu Apr 15, 6:04am

Thu Apr 15, 5:04am

Thu Apr 15, 4:04am

Thu Apr 15, 3:04am

Thu Apr 15, 2:04am

Thu Apr 15, 1:04am

Thu Apr 15, 12:04am

Wed Apr 14, 11:04pm

Wed Apr 14, 10:04pm

Wed Apr 14, 9:04pm

Wed Apr 14, 8:04pm

Wed Apr 14, 7:04pm

Wed Apr 14, 6:04pm

Wed Apr 14, 5:05pm

Wed Apr 14, 4:04pm

Wed Apr 14, 3:05pm

Wed Apr 14, 2:04pm

Wed Apr 14, 1:05pm

Wed Apr 14, 12:04pm

Wed Apr 14, 11:04am

Wed Apr 14, 10:04am

Wed Apr 14, 9:04am

Wed Apr 14, 8:04am

Wed Apr 14, 7:04am

Wed Apr 14, 6:04am

Wed Apr 14, 5:04am

Wed Apr 14, 4:04am

Wed Apr 14, 3:04am

Wed Apr 14, 2:04am

Wed Apr 14, 1:04am

Wed Apr 14, 12:04am

Tue Apr 13, 11:04pm

Tue Apr 13, 10:05pm

Tue Apr 13, 9:05pm

Tue Apr 13, 8:05pm

Tue Apr 13, 7:04pm

Tue Apr 13, 6:04pm

Tue Apr 13, 5:05pm

Tue Apr 13, 4:04pm

Tue Apr 13, 3:04pm

Tue Apr 13, 2:05pm

Tue Apr 13, 1:04pm

Tue Apr 13, 12:05pm

Tue Apr 13, 11:05am

Tue Apr 13, 10:04am

Tue Apr 13, 9:04am

Tue Apr 13, 8:04am

Tue Apr 13, 7:04am

Tue Apr 13, 6:04am

Tue Apr 13, 5:04am

Tue Apr 13, 4:04am

Tue Apr 13, 3:04am

Tue Apr 13, 2:04am

Tue Apr 13, 1:04am

Tue Apr 13, 12:05am

Mon Apr 12, 11:04pm

Mon Apr 12, 10:04pm

Mon Apr 12, 9:04pm

Mon Apr 12, 8:04pm

Mon Apr 12, 7:05pm

Mon Apr 12, 6:04pm

Mon Apr 12, 5:04pm

Mon Apr 12, 4:04pm

Mon Apr 12, 3:05pm

Mon Apr 12, 2:04pm

Mon Apr 12, 1:05pm

Mon Apr 12, 12:04pm

Mon Apr 12, 11:04am

Mon Apr 12, 10:04am

Mon Apr 12, 9:04am

Mon Apr 12, 8:04am

Mon Apr 12, 7:04am

Mon Apr 12, 6:04am

Mon Apr 12, 5:04am

Mon Apr 12, 4:04am

Mon Apr 12, 3:04am

Mon Apr 12, 2:04am

Mon Apr 12, 1:05am

Mon Apr 12, 12:04am

Sun Apr 11, 11:04pm

Sun Apr 11, 10:04pm

Sun Apr 11, 9:04pm

Sun Apr 11, 8:04pm

Sun Apr 11, 7:04pm

Sun Apr 11, 6:05pm

Sun Apr 11, 5:05pm

Sun Apr 11, 4:04pm

Sun Apr 11, 3:05pm

Sun Apr 11, 2:05pm

Sun Apr 11, 1:05pm

Sun Apr 11, 12:04pm

Sun Apr 11, 11:05am

Sun Apr 11, 10:05am

Sun Apr 11, 9:04am

Sun Apr 11, 8:04am

Sun Apr 11, 7:04am

Sun Apr 11, 6:04am

Sun Apr 11, 5:04am

Sun Apr 11, 4:04am

Sun Apr 11, 3:04am

Sun Apr 11, 2:04am

Sun Apr 11, 1:05am

Sun Apr 11, 12:04am

Sat Apr 10, 11:05pm

Sat Apr 10, 10:04pm

Sat Apr 10, 9:04pm

Sat Apr 10, 8:04pm

Sat Apr 10, 7:05pm

Sat Apr 10, 6:04pm

Sat Apr 10, 5:04pm

Sat Apr 10, 4:04pm

Sat Apr 10, 3:04pm

Sat Apr 10, 2:05pm

Sat Apr 10, 1:04pm

Sat Apr 10, 12:04pm

Sat Apr 10, 11:04am

Sat Apr 10, 10:04am

Sat Apr 10, 9:04am

Sat Apr 10, 8:04am

Sat Apr 10, 7:04am

Sat Apr 10, 6:04am

Sat Apr 10, 5:04am

Sat Apr 10, 4:04am

Sat Apr 10, 3:04am

Sat Apr 10, 2:04am

Sat Apr 10, 1:05am

Sat Apr 10, 12:04am

Fri Apr 9, 11:04pm

Fri Apr 9, 10:05pm

Fri Apr 9, 9:04pm

Fri Apr 9, 8:05pm

Fri Apr 9, 7:05pm

Fri Apr 9, 6:04pm

Fri Apr 9, 5:04pm

Fri Apr 9, 4:05pm

Fri Apr 9, 3:05pm

Fri Apr 9, 2:04pm

Fri Apr 9, 1:04pm

Fri Apr 9, 12:04pm

Fri Apr 9, 11:05am

Meta data:

ID: 7eaec5c2-20b2-47c7-a42f-051c0008c70b
Link: https://api.weather.gov/products/7eaec5c2-20b2-47c7-a42f-051c0008c70b